Flag for U.S.A. Weather past 2 weeks in Aurora, Colorado, U.S.A.

Now
73 °F

Passing clouds.


Feels Like: 77 °F
Forecast: 58 / 89 °F
Wind: 9 mph from South

Location: Buckley Air Force Base

Current Time: Sep 2, 2014 at 8:44:30 PM

Latest Report: Sep 2, 2014 at 7:58 PM


Visibility: 10 mi

Pressure: 29.82 "Hg

Humidity: 47%

Dew point: 52 °F

Location of AuroraLocation

Historic Weather in Aurora — Graph

°F

Aurora temperature yesterday

Maximum temperature yesterday: 79 °F (at 3:58 PM)
Minimum temperature yesterday: 52 °F (at 3:58 AM)
Average temperature yesterday: 64 °F

Past Weeks' High & Low Weather Summary

 TemperatureHumidityPressure
High90 °F (Aug 19, 2:58 PM)100% (Aug 26, 3:58 AM)30.23 "Hg (Aug 26, 3:58 AM)
Low47 °F (Sep 2, 4:58 AM)15% (Sep 2, 1:58 PM)29.67 "Hg (Aug 31, 4:58 AM)
Average65 °F61%29.90 "Hg
* Reported Aug 18 7:58 PM — Sep 2 7:58 PM, Aurora, Weather by CustomWeather, © 2014

Note: Actual official high and low records may vary slightly from our data, if they occured in-between our weather recording intervals... More about our weather records

Advertising

Aurora weather history for previous 24 hours

 ConditionsComfort  
Time TempWeatherWind HumidityBarometerVisibility
7:58 PM
Sep 2
73 °FPassing clouds.9 mph47%29.82 "Hg10 mi
6:58 PM80 °FPassing clouds.12 mph35%29.80 "Hg10 mi
5:58 PM83 °FPassing clouds.10 mph24%29.78 "Hg10 mi
4:58 PM86 °FPassing clouds.10 mph17%29.80 "Hg10 mi
3:58 PM87 °FPassing clouds.6 mph17%29.80 "Hg10 mi
2:58 PM86 °FPassing clouds.10 mph16%29.81 "Hg10 mi
1:58 PM85 °FPassing clouds.8 mph15%29.85 "Hg10 mi
12:58 PM81 °FPassing clouds.2 mph23%29.87 "Hg10 mi
11:58 AM78 °FPassing clouds.1 mph31%29.89 "Hg10 mi
10:58 AM74 °FPassing clouds.7 mph43%29.91 "Hg10 mi
9:58 AM67 °FSunny.No wind48%29.94 "Hg10 mi
8:58 AM62 °FSunny.7 mph57%29.95 "Hg10 mi
7:58 AM54 °FSunny.3 mph70%29.99 "Hg10 mi
6:58 AM49 °FClear.8 mph81%29.97 "Hg10 mi
5:58 AM47 °FClear.13 mph85%29.97 "Hg10 mi
4:58 AM47 °FClear.7 mph84%29.97 "Hg10 mi
3:58 AM49 °FClear.2 mph77%29.97 "Hg10 mi
2:58 AM51 °FClear.3 mph75%29.98 "Hg10 mi
1:58 AM50 °FClear.7 mph79%30.00 "Hg10 mi
12:58 AM52 °FPassing clouds.6 mph73%29.98 "Hg10 mi
11:58 PM
Sep 1
57 °FPassing clouds.10 mph60%29.98 "Hg10 mi
10:58 PM60 °FPassing clouds.8 mph57%29.95 "Hg10 mi
9:58 PM61 °FPassing clouds.9 mph53%29.95 "Hg10 mi
8:58 PM63 °FPassing clouds.7 mph48%29.93 "Hg10 mi
Weather by CustomWeather, © 2014

See weather overviewHow to use our weather pages